Home   Weather   Provo   Past weeks

Flag for USA Past Weather in Provo, Utah, USA — Yesterday and Last 2 Weeks

Now
54 °F

Passing clouds.


Feels Like: 52 °F
Forecast: 37 / 58 °F
Wind: 6 mph from North

Location: Provo Municipal

Current Time: Apr 30, 2017 at 10:16:49 pm

Latest Report: Apr 30, 2017 at 8:58 pm


Visibility: 10 mi

Pressure: 30.06 "Hg (25.46 "Hg at 1386m altitude)

Humidity: 58%

Dew Point: 39 °F

Location of ProvoLocation

Past Weather in Provo — Graph

°F

Provo Temperature Yesterday

Maximum temperature yesterday: 55 °F (at 3:58 pm)
Minimum temperature yesterday: 30 °F (at 6:56 am)
Average temperature yesterday: 44 °F

High & Low Weather Summary for the Past Weeks

 TemperatureHumidityPressure
High72 °F (Apr 17, 1:58 pm)93% (Apr 19, 1:56 am)30.28 "Hg (Apr 19, 1:56 am)
Low30 °F (Apr 29, 6:56 am)17% (Apr 17, 2:58 pm)29.66 "Hg (Apr 24, 5:56 pm)
Average48 °F62%29.98 "Hg
* Reported Apr 15 8:56 pm — Apr 30 8:58 pm, Provo, Weather by CustomWeather, © 2017

Note: Actual official high and low records may vary slightly from our data, if they occured in-between our weather recording intervals... More about our weather records

Advertising

Provo Weather History for the Previous 24 Hours

Scroll right to see more
 ConditionsComfort  
Time TempWeatherWind HumidityBarometerVisibility
8:58 pm
Sun, Apr 30
54 °FPassing clouds.6 mph58%30.06 "Hg10 mi
7:58 pm55 °FPartly sunny.6 mph47%30.06 "Hg10 mi
6:56 pm60 °FPartly sunny.5 mph31%30.04 "Hg10 mi
5:58 pm59 °FPartly sunny.6 mph34%30.08 "Hg10 mi
4:58 pm59 °FPartly sunny.6 mph31%30.10 "Hg10 mi
3:58 pm59 °FBroken clouds.6 mph29%30.12 "Hg10 mi
2:58 pm57 °FPartly sunny.6 mph31%30.13 "Hg10 mi
1:58 pm55 °FPartly sunny.5 mph33%30.15 "Hg10 mi
12:58 pm55 °FPartly sunny.No wind31%30.17 "Hg10 mi
11:56 am53 °FSunny.3 mph38%30.17 "Hg10 mi
10:58 am50 °FPartly sunny.No wind43%30.21 "Hg10 mi
9:58 am46 °FPartly sunny.7 mph50%30.23 "Hg10 mi
8:58 am43 °FPartly sunny.8 mph53%30.23 "Hg10 mi
7:58 am37 °FPartly sunny.7 mph65%30.23 "Hg10 mi
6:56 am31 °FSunny.3 mph79%30.23 "Hg10 mi
6:47 am30 °FPartly sunny.3 mph80%30.23 "Hg10 mi
5:56 am31 °FClear.6 mph82%30.22 "Hg10 mi
4:56 am33 °FClear.5 mph72%30.22 "Hg10 mi
3:56 am35 °FClear.8 mph70%30.19 "Hg10 mi
2:56 am34 °FClear.6 mph73%30.20 "Hg10 mi
1:56 am35 °FClear.8 mph75%30.20 "Hg10 mi
12:56 am39 °FClear.9 mph65%30.20 "Hg10 mi
11:56 pm
Sat, Apr 29
37 °FClear.3 mph73%30.22 "Hg10 mi
10:56 pm44 °FClear.No wind43%30.20 "Hg10 mi
Weather by CustomWeather, © 2017

See weather overviewHow to use our weather pages